3091,2014-09-09 06:04:48,1410242688,61.43659,2.92607,12,2,2009-00-00 05:05:19,,14.35,6,10.4,0,0,61.4708,2.8768,79,3
31,2014-05-04 18:06:09,1399226769,59.84633,-5.71769,9,1,2014-05-04 18:05:34,1399226734,12.802,8,11.1,0,0,59.7941,-5.704,63,4
32,2014-05-04 19:05:39,1399230339,59.81342,-4.49715,105,1,2014-05-04 19:05:35,1399230335,10.093,8,11.1,0,0,59.8574,-5.7594,32,2
33,2014-05-04 20:05:12,1399233912,59.82295,-8.66481,179,1,2014-05-04 20:05:35,1399233935,9.921,8,11.1,0,0,59.8589,-5.7426,3,5
34,2014-05-04 21:05:11,1399237511,59.8494,-5.64669,2,0,2014-05-04 21:05:06,1399237506,9.878,28,11.1,0,0,59.8624,-5.7219,3,5
35,2014-05-04 22:05:36,1399241136,59.76949,-8.7245,181,0,2014-05-04 22:05:39,1399241139,9.792,28,11.1,0,0,59.8674,-5.696,28,3
36,2014-05-04 23:05:19,1399244719,59.84633,-5.71769,6,1,2014-05-04 23:05:49,1399244749,9.749,28,11.1,0,0,59.8738,-5.6684,3,5
37,2014-05-05 00:06:12,1399248372,59.89524,-5.72481,4,1,2014-05-05 00:05:07,1399248307,9.792,28,11.1,0,0,59.8816,-5.6407,63,4
38,2014-05-05 01:05:13,1399251913,59.85244,-5.57566,5,0,2014-05-05 01:05:13,1399251913,9.749,34,11.1,0,0,59.8896,-5.6122,3,3
39,2014-05-05 02:05:08,1399255508,59.927,-4.94186,78,1,2014-05-05 02:05:38,1399255538,9.749,34,11.1,0,0,59.895,-5.5851,3,2
40,2014-05-05 03:05:48,1399259148,59.90136,-5.58261,4,0,2014-05-05 03:05:07,1399259107,9.749,34,11.1,0,0,59.8985,-5.5636,40,4
41,2014-05-05 04:05:21,1399262721,59.9448,-4.44263,92,0,2014-05-05 04:05:03,1399262703,9.749,34,11.1,0,0,59.902,-5.5493,3,2
42,2014-05-05 05:05:20,1399266320,59.93529,-5.51835,5,0,2014-05-05 05:05:54,1399266354,9.706,28,11.1,0,0,59.9049,-5.5411,3,2
43,2014-05-05 06:05:16,1399269916,59.93529,-5.51835,16,1,2014-05-05 06:05:38,1399269938,9.706,28,11.1,0,0,59.9075,-5.5373,3,2
44,2014-05-05 07:05:29,1399273529,59.90733,-5.44033,1,1,2014-05-05 07:05:14,1399273514,9.706,28,11.1,0,0,59.9096,-5.5335,22,5
45,2014-05-05 08:05:12,1399277112,59.90136,-5.58261,2,0,2014-05-05 08:05:14,1399277114,9.706,28,11.1,0,0,59.9132,-5.5306,3,5
46,2014-05-05 09:05:20,1399280720,59.93529,-5.51835,8,0,2014-05-05 09:05:35,1399280735,9.706,31,11.1,0,0,59.919,-5.524,3,4
47,2014-05-05 10:05:22,1399284322,59.93529,-5.51835,7,0,2014-05-05 10:05:19,1399284319,9.706,31,11.1,0,0,59.9262,-5.5094,3,5
48,2014-05-05 11:05:12,1399287912,59.90733,-5.44033,4,-1,2014-05-05 11:05:44,1399287944,9.749,31,11.1,0,0,59.9333,-5.4913,3,5
49,2014-05-05 12:05:10,1399291510,59.93529,-5.51835,3,2,2014-05-05 12:05:08,1399291508,9.792,31,11.1,0,0,59.9406,-5.4679,3,5
50,2014-05-05 13:05:15,1399295115,59.95916,-5.37587,5,1,2014-05-05 13:05:01,1399295101,9.749,32,11.1,0,0,59.9468,-5.4431,3,5
51,2014-05-05 14:05:10,1399298710,59.91025,-5.36917,4,3,2014-05-05 14:05:44,1399298744,9.792,32,11.1,0,0,59.9513,-5.4184,3,5
52,2014-05-05 15:05:13,1399302313,60.10692,-8.30308,184,2,2014-05-05 15:05:04,1399302304,9.792,32,11.1,0,0,59.9558,-5.3951,3,4
53,2014-05-05 16:05:12,1399305912,59.94408,-5.3046,2,2,2014-05-05 16:05:44,1399305944,9.792,32,11.1,0,0,59.9589,-5.3756,3,3
54,2014-05-05 17:05:20,1399309520,60.07577,-7.78458,159,2,2014-05-05 17:05:39,1399309539,9.792,31,11.1,0,0,59.961,-5.3602,3,5
55,2014-05-05 18:05:11,1399313111,59.95916,-5.37587,1,2,2014-05-05 18:05:10,1399313110,9.749,31,11.1,0,0,59.9635,-5.3471,3,2
56,2014-05-05 19:05:13,1399316713,60.05424,-7.05378,134,5,2014-05-05 19:05:32,1399316732,9.749,31,11.1,0,0,59.9657,-5.3326,3,5
57,2014-05-05 20:05:17,1399320317,59.83143,-11.2119,338,1,2014-05-05 20:05:58,1399320358,9.749,31,11.1,0,0,59.9667,-5.3158,3,2
58,2014-05-05 21:06:24,1399323984,59.94408,-5.3046,3,1,2014-05-05 21:05:46,1399323946,9.749,32,11.1,0,0,59.9687,-5.2959,78,5
59,2014-05-05 22:05:15,1399327515,59.94408,-5.3046,12,1,2014-05-05 22:05:17,1399327517,9.749,32,11.1,0,0,59.9713,-5.2746,3,2
60,2014-05-05 23:05:40,1399331140,59.94693,-5.23332,3,1,2014-05-05 23:05:08,1399331108,9.749,32,11.1,0,0,59.9752,-5.2544,33,5
61,2014-05-06 00:05:36,1399334736,59.94408,-5.3046,3,1,2014-05-06 00:05:42,1399334742,9.749,32,11.1,0,0,59.9824,-5.2288,23,4
62,2014-05-06 01:05:35,1399338335,59.96772,-5.16202,2,2,2014-05-06 01:05:12,1399338312,9.749,35,11.1,0,0,59.9895,-5.1966,28,5
63,2014-05-06 02:05:08,1399341908,59.90008,-7.16936,130,1,2014-05-06 02:05:13,1399341913,9.706,35,11.1,0,0,59.9965,-5.166,3,1
64,2014-05-06 03:05:21,1399345521,59.99868,-5.16847,2,1,2014-05-06 03:05:08,1399345508,9.706,35,11.1,0,0,60.0032,-5.1397,3,5
65,2014-05-06 04:05:25,1399349125,60.00421,-5.02565,3,0,2014-05-06 04:05:11,1399349111,9.706,35,11.1,0,0,60.0097,-5.1149,19,5
66,2014-05-06 05:05:08,1399352708,60.00421,-5.02565,1,1,2014-05-06 05:05:44,1399352744,9.706,31,11.1,0,0,60.0156,-5.0936,3,5
67,2014-05-06 06:05:21,1399356321,60.0543,-4.09585,86,1,2014-05-06 06:05:45,1399356345,9.706,31,11.1,0,0,60.0213,-5.0772,3,4
68,2014-05-06 07:05:34,1399359934,60.00146,-5.09706,5,1,2014-05-06 07:05:14,1399359914,9.706,31,11.1,0,0,60.0268,-5.0614,18,5
69,2014-05-06 08:05:10,1399363510,60.05313,-5.03193,10,187,2014-05-06 08:05:45,1399363545,9.663,31,11.1,0,0,60.0319,-5.0459,3,5
70,2014-05-06 09:05:18,1399367118,60.05313,-5.03193,3,187,2014-05-06 09:05:46,1399367146,9.663,28,11.1,0,0,60.0378,-5.0318,3,5
71,2014-05-06 10:05:11,1399370711,60.00421,-5.02565,6,189,2014-05-06 10:05:14,1399370714,9.663,28,11.1,0,0,60.0448,-5.0148,3,5
72,2014-05-06 11:05:09,1399374309,60.05584,-4.96041,3,189,2014-05-06 11:05:52,1399374352,9.706,28,11.1,0,0,60.052,-4.9952,3,5
73,2014-05-06 12:05:13,1399377913,60.08412,-5.03824,2,190,2014-05-06 12:05:36,1399377936,9.749,28,11.1,0,0,60.0609,-4.9729,3,5
74,2014-05-06 13:05:21,1399381521,60.08684,-4.96663,2,6,2014-05-06 13:05:40,1399381540,9.921,30,11.1,0,0,60.0712,-4.9484,3,2
75,2014-05-06 14:05:11,1399385111,60.05851,-4.88887,2,1,2014-05-06 14:05:37,1399385137,9.878,30,11.1,0,0,60.0821,-4.9226,3,2
76,2014-05-06 15:05:11,1399388711,60.43857,-10.01219,295,1,2014-05-06 15:05:45,1399388745,10.007,30,11.1,0,0,60.0932,-4.8983,3,5
77,2014-05-06 16:05:12,1399392312,60.10741,-4.895,2,2,2014-05-06 16:05:37,1399392337,10.007,30,11.1,0,0,60.1044,-4.8747,3,5
78,2014-05-06 17:05:10,1399395910,60.10741,-4.895,2,1,2014-05-06 17:05:11,1399395911,9.878,31,11.1,0,0,60.1155,-4.8543,3,5
79,2014-05-06 18:05:20,1399399520,60.11004,-4.82336,2,1,2014-05-06 18:05:08,1399399508,9.835,31,11.1,0,0,60.1259,-4.8368,3,5
80,2014-05-06 19:05:09,1399403109,60.23596,-6.65921,127,1,2014-05-06 19:05:35,1399403135,9.835,31,11.1,0,0,60.1364,-4.8183,3,5
81,2014-05-06 20:06:00,1399406760,60.14366,-4.75766,2,1,2014-05-06 20:05:40,1399406740,9.835,31,11.1,0,0,60.1449,-4.7988,43,5
82,2014-05-06 21:05:42,1399410342,60.11264,-4.7517,4,2,2014-05-06 21:05:00,1399410300,9.921,26,11.1,0,0,60.1525,-4.7786,25,5
83,2014-05-06 22:05:33,1399413933,60.14106,-4.82941,2,1,2014-05-06 22:05:02,1399413902,9.878,26,11.1,0,0,60.1594,-4.7564,18,3
84,2014-05-06 23:05:26,1399417526,60.14623,-4.6859,2,2,2014-05-06 23:05:08,1399417508,9.835,26,11.1,0,0,60.1665,-4.7335,20,5
85,2014-05-07 00:05:11,1399421111,60.14875,-4.61412,3,2,2014-05-07 00:05:03,1399421103,9.749,26,11.1,0,0,60.1748,-4.709,3,5
86,2014-05-07 01:05:20,1399424720,60.19256,-4.76364,1,2,2014-05-07 01:05:36,1399424736,9.749,28,11.1,0,0,60.1847,-4.6823,3,5
87,2014-05-07 02:05:10,1399428310,60.19765,-4.61992,3,4,2014-05-07 02:05:15,1399428315,9.792,28,11.1,0,0,60.1954,-4.6546,3,4
88,2014-05-07 03:05:37,1399431937,60.20014,-4.54804,2,4,2014-05-07 03:05:14,1399431914,9.749,28,11.1,0,0,60.2075,-4.6247,20,3
89,2014-05-07 04:05:56,1399435556,60.14893,-6.78557,138,1,2014-05-07 04:05:07,1399435507,9.706,28,11.1,0,0,60.2198,-4.5942,48,5
90,2014-05-07 05:05:11,1399439111,60.22871,-4.62574,2,6,2014-05-07 05:05:07,1399439107,9.706,32,11.1,0,0,60.2321,-4.5633,3,5
91,2014-05-07 06:05:19,1399442719,60.25148,-4.48178,4,2,2014-05-07 06:05:17,1399442717,9.706,32,11.1,0,0,60.2431,-4.5325,3,5
92,2014-05-07 07:05:11,1399446311,60.28256,-4.48743,4,2,2014-05-07 07:05:15,1399446315,9.706,32,11.1,0,0,60.2521,-4.5041,3,4
93,2014-05-07 08:05:26,1399449926,60.23366,-4.48178,16,2,2014-05-07 08:05:38,1399449938,9.749,32,11.1,0,0,60.2603,-4.4776,18,5
94,2014-05-07 09:05:13,1399453513,60.28498,-4.41534,2,2,2014-05-07 09:05:44,1399453544,9.749,32,11.1,0,0,60.2671,-4.4516,3,2
95,2014-05-07 10:05:19,1399457119,60.23608,-4.40978,4,2,2014-05-07 10:05:55,1399457155,9.749,32,11.1,0,0,60.272,-4.4259,3,5
96,2014-05-07 11:05:11,1399460711,60.28498,-4.41534,2,2,2014-05-07 11:05:44,1399460744,9.749,32,11.1,0,0,60.2795,-4.4012,3,5
97,2014-05-07 12:05:19,1399464319,60.25627,-4.33777,2,2,2014-05-07 12:05:02,1399464302,9.835,32,11.1,0,0,60.2875,-4.3751,3,5
98,2014-05-07 13:06:50,1399468010,60.33385,-4.42092,3,2,2014-05-07 13:05:02,1399467902,9.835,31,11.1,0,0,60.2979,-4.3466,94,1
99,2014-05-07 14:05:08,1399471508,60.28736,-4.34324,3,2,2014-05-07 14:05:14,1399471514,9.835,31,11.1,0,0,60.3085,-4.315,3,5
100,2014-05-07 15:05:13,1399475113,60.292,-4.19899,3,1,2014-05-07 15:05:43,1399475143,9.835,31,11.1,0,0,60.3201,-4.28,3,5
101,2014-05-07 16:05:27,1399478727,60.292,-4.19899,3,2,2014-05-07 16:05:07,1399478707,9.792,31,11.1,0,0,60.3311,-4.2442,18,5
102,2014-05-07 17:05:12,1399482312,60.34089,-4.20429,9,6,2014-05-07 17:05:33,1399482333,9.792,30,11.1,0,0,60.342,-4.2106,3,5
103,2014-05-07 18:05:44,1399485944,60.34089,-4.20429,7,1,2014-05-07 18:05:38,1399485938,9.835,30,11.1,0,0,60.3525,-4.1792,24,5
104,2014-05-07 19:05:11,1399489511,60.65449,-8.59591,256,2,2014-05-07 19:05:15,1399489515,9.835,30,11.1,0,0,60.3624,-4.1503,3,3
105,2014-05-07 20:05:28,1399493128,60.39202,-4.13729,9,2,2014-05-07 20:05:08,1399493108,9.835,30,11.1,0,0,60.3719,-4.1237,21,5
106,2014-05-07 21:05:08,1399496708,60.37651,-4.06495,2,2,2014-05-07 21:05:38,1399496738,9.835,33,11.1,0,0,60.3815,-4.0979,3,5
107,2014-05-07 22:05:17,1399500317,60.3787,-3.9926,2,2,2014-05-07 22:05:08,1399500308,9.835,33,11.1,0,0,60.391,-4.0713,3,5
108,2014-05-07 23:05:25,1399503925,60.34538,-4.05981,5,2,2014-05-07 23:05:20,1399503920,9.835,33,11.1,0,0,60.4004,-4.0441,18,5
109,2014-05-08 00:05:33,1399507533,60.39425,-4.06495,3,2,2014-05-08 00:05:15,1399507515,9.792,33,11.1,0,0,60.4092,-4.0137,16,5
110,2014-05-08 01:06:05,1399511165,60.39644,-3.9926,5,2,2014-05-08 01:05:09,1399511109,9.749,28,11.1,0,0,60.4197,-3.9817,51,5
111,2014-05-08 02:05:18,1399514718,60.43186,-3.85273,4,2,2014-05-08 02:05:02,1399514702,9.749,28,11.1,0,0,60.4303,-3.9463,3,3
112,2014-05-08 03:05:11,1399518311,60.42974,-3.9252,3,1,2014-05-08 03:05:04,1399518304,9.792,28,11.1,0,0,60.4406,-3.909,3,5
113,2014-05-08 04:05:11,1399521911,60.43186,-3.85273,6,2,2014-05-08 04:05:07,1399521907,9.792,28,11.1,0,0,60.4505,-3.8728,3,5
114,2014-05-08 05:05:24,1399525524,60.4828,-3.78504,5,2,2014-05-08 05:05:04,1399525504,9.749,28,11.1,0,0,60.4604,-3.8377,18,5
115,2014-05-08 06:05:57,1399529157,60.27841,-7.61855,234,3,2014-05-08 06:05:07,1399529107,9.749,28,11.1,0,0,60.4692,-3.8049,47,5
116,2014-05-08 07:05:30,1399532730,60.43394,-3.78025,7,2,2014-05-08 07:05:14,1399532714,9.792,28,11.1,0,0,60.4769,-3.7768,19,5
117,2014-05-08 08:05:21,1399536321,60.43726,-2.25286,107,2,2014-05-08 08:05:44,1399536344,9.792,28,11.1,0,0,60.4843,-3.7515,3,3
118,2014-05-08 09:05:13,1399539913,60.51602,-3.71718,7,2,2014-05-08 09:05:33,1399539933,9.792,27,11.1,0,0,60.4903,-3.7278,3,2
119,2014-05-08 10:05:23,1399543523,60.51978,-2.11301,124,2,2014-05-08 10:05:10,1399543510,9.835,27,11.1,0,0,60.4956,-3.7078,18,5
120,2014-05-08 11:05:10,1399547110,60.56488,-3.7219,5,2,2014-05-08 11:05:47,1399547147,9.835,27,11.1,0,0,60.5009,-3.6894,3,5
121,2014-05-08 12:06:03,1399550763,60.51803,-3.64449,3,2,2014-05-08 12:05:09,1399550709,9.835,27,11.1,0,0,60.507,-3.6707,45,5
122,2014-05-08 13:05:08,1399554308,60.51803,-3.64449,4,2,2014-05-08 13:05:08,1399554308,9.964,31,11.1,0,0,60.5136,-3.6508,3,1
123,2014-05-08 14:05:09,1399557909,60.53569,-3.64449,5,2,2014-05-08 14:05:03,1399557903,10.093,31,11.1,0,0,60.521,-3.629,3,5
124,2014-05-08 15:05:11,1399561511,60.48881,-3.56726,7,2,2014-05-08 15:05:05,1399561505,10.136,31,11.1,0,0,60.5295,-3.6071,3,5
125,2014-05-08 16:05:07,1399565107,60.57079,-3.50353,2,2,2014-05-08 16:05:17,1399565117,10.093,31,11.1,0,0,60.538,-3.5825,3,3
126,2014-05-08 17:05:09,1399568709,60.52193,-3.49908,2,2,2014-05-08 17:05:48,1399568748,10.093,26,11.1,0,0,60.5466,-3.5575,3,3
127,2014-05-08 18:05:12,1399572312,60.52,-3.57179,2,2,2014-05-08 18:05:14,1399572314,10.093,26,11.1,0,0,60.5543,-3.5306,3,5
128,2014-05-08 19:05:29,1399575929,60.56885,-3.57633,10,2,2014-05-08 19:05:31,1399575931,10.05,26,11.1,0,0,60.5608,-3.509,21,2
129,2014-05-08 20:05:19,1399579519,60.57268,-3.43072,1,3,2014-05-08 20:05:10,1399579510,10.007,26,11,0,0,60.5667,-3.49,3,5
130,2014-05-08 21:05:12,1399583112,60.8836,1.17967,264,2,2014-05-08 21:05:09,1399583109,10.007,31,11.1,0,0,60.5723,-3.475,3,3
131,2014-05-08 22:05:38,1399586738,60.57268,-3.43072,5,2,2014-05-08 22:05:44,1399586744,9.964,31,11.1,0,0,60.5781,-3.4629,24,5
132,2014-05-08 23:05:26,1399590326,60.57268,-3.43072,8,2,2014-05-08 23:05:15,1399590315,9.964,31,11.1,0,0,60.5849,-3.4532,18,1
133,2014-05-09 00:05:10,1399593910,60.57079,-3.50353,3,1,2014-05-09 00:05:10,1399593910,9.921,31,11.1,0,0,60.5923,-3.4447,3,3
134,2014-05-09 01:05:34,1399597534,60.57268,-3.43072,2,2,2014-05-09 01:05:44,1399597544,9.878,32,11.1,0,0,60.6017,-3.436,18,4
135,2014-05-09 02:05:12,1399601112,60.60575,-3.36217,3,1,2014-05-09 02:05:38,1399601138,9.835,32,11.1,0,0,60.6128,-3.424,3,5
136,2014-05-09 03:05:27,1399604727,60.602,-3.50799,2,1,2014-05-09 03:05:13,1399604713,9.792,32,11.1,0,0,60.625,-3.4087,18,5
137,2014-05-09 04:05:08,1399608308,60.62337,-3.36217,3,1,2014-05-09 04:05:39,1399608339,9.792,32,11.1,0,0,60.6382,-3.39,3,4
138,2014-05-09 05:05:42,1399611942,60.65642,-3.29344,2,3,2014-05-09 05:05:10,1399611910,9.792,34,11.1,0,0,60.6511,-3.3688,33,5
139,2014-05-09 06:05:12,1399615512,60.53559,-8.41895,287,3,2014-05-09 06:05:52,1399615552,9.792,34,11.1,0,0,60.6639,-3.348,3,5
140,2014-05-09 07:05:39,1399619139,60.65642,-3.29344,4,2,2014-05-09 07:05:44,1399619144,9.792,34,11.1,0,0,60.6762,-3.3294,23,1
141,2014-05-09 08:05:26,1399622726,60.78006,-4.55636,105,2,2014-05-09 08:05:01,1399622701,9.792,34,11.1,0,0,60.6885,-3.3127,18,5
142,2014-05-09 09:05:19,1399626319,60.73651,-3.30187,4,2,2014-05-09 09:05:02,1399626302,9.835,34,11,0,0,60.6997,-3.2991,3,5
143,2014-05-09 10:05:12,1399629912,60.61024,-1.31523,132,2,2014-05-09 10:05:14,1399629914,9.835,34,11.1,0,0,60.7107,-3.2879,3,2
144,2014-05-09 11:05:17,1399633517,60.73829,-3.22865,3,2,2014-05-09 11:05:15,1399633515,9.835,34,11,0,0,60.7222,-3.2788,3,1
145,2014-05-09 12:05:13,1399637113,60.66223,-0.95118,140,2,2014-05-09 12:05:15,1399637115,9.921,34,11.1,0,0,60.7341,-3.2711,3,5
146,2014-05-09 13:05:21,1399640721,60.73651,-3.30187,2,2,2014-05-09 13:05:15,1399640715,10.007,31,11,0,0,60.746,-3.2635,3,4
147,2014-05-09 14:05:37,1399644337,60.73829,-3.22865,2,1,2014-05-09 14:05:07,1399644307,10.007,31,11.1,0,0,60.759,-3.2539,21,1
147,2014-05-09 14:05:51,1399644351,60.75405,-3.30187,3,2,2014-05-09 14:05:07,1399644307,10.007,31,11.1,0,0,60.759,-3.2539,45,5
148,2014-05-09 15:05:15,1399647915,60.78885,-3.15946,1,1,2014-05-09 15:05:33,1399647933,10.007,31,11.1,0,0,60.7733,-3.2427,3,5
149,2014-05-09 16:05:11,1399651511,60.6124,2.19417,305,2,2014-05-09 16:05:11,1399651511,10.007,31,11,0,0,60.7882,-3.2294,3,4
150,2014-05-09 17:05:07,1399655107,60.78711,-3.23278,2,2,2014-05-09 17:05:10,1399655110,10.007,31,11.1,0,0,60.8042,-3.2126,3,5
151,2014-05-09 18:05:27,1399658727,60.78885,-3.15946,2,1,2014-05-09 18:05:14,1399658714,10.007,31,11.1,0,0,60.8205,-3.194,18,5
152,2014-05-09 19:05:17,1399662317,60.82015,-3.16351,4,2,2014-05-09 19:05:11,1399662311,9.964,31,11.1,0,0,60.8363,-3.1759,3,5
153,2014-05-09 20:05:15,1399665915,60.86719,-3.24109,3,2,2014-05-09 20:05:37,1399665937,9.921,31,11,0,0,60.8505,-3.1579,3,4
154,2014-05-09 21:05:32,1399669532,60.98402,-0.81318,144,2,2014-05-09 21:05:08,1399669508,9.921,32,11.1,0,0,60.8637,-3.1441,23,3
155,2014-05-09 22:05:11,1399673111,60.86895,-3.16758,2,2,2014-05-09 22:05:10,1399673110,9.878,32,11.1,0,0,60.8754,-3.133,3,5
156,2014-05-09 23:05:18,1399676718,60.86895,-3.16758,3,2,2014-05-09 23:05:44,1399676744,9.878,32,11,0,0,60.8869,-3.125,3,5
157,2014-05-10 00:05:20,1399680320,60.87066,-3.09406,2,1,2014-05-10 00:05:13,1399680313,9.835,32,11.1,0,0,60.8983,-3.1199,3,5
158,2014-05-10 01:05:19,1399683919,61.27173,2.23989,299,2,2014-05-10 01:05:38,1399683938,9.835,31,11.1,0,0,60.9101,-3.1161,3,5
159,2014-05-10 02:05:11,1399687511,60.91772,-3.17165,2,1,2014-05-10 02:05:39,1399687539,9.835,31,11.1,0,0,60.9233,-3.1119,3,5
160,2014-05-10 03:05:36,1399691136,60.95245,-3.02831,3,2,2014-05-10 03:05:44,1399691144,9.835,31,11.1,0,0,60.9377,-3.1051,21,5
161,2014-05-10 04:05:11,1399694711,60.95245,-3.02831,2,2,2014-05-10 04:05:08,1399694708,9.835,31,11.1,0,0,60.953,-3.0961,3,2
162,2014-05-10 05:05:10,1399698310,60.95077,-3.10203,3,2,2014-05-10 05:05:06,1399698306,9.835,28,11.1,0,0,60.9693,-3.0859,3,2
163,2014-05-10 06:05:11,1399701911,60.95077,-3.10203,6,1,2014-05-10 06:05:16,1399701916,9.835,28,11.1,0,0,60.9856,-3.0753,3,3
164,2014-05-10 07:05:46,1399705546,61.03257,-3.03613,5,2,2014-05-10 07:05:37,1399705537,9.835,28,11.1,0,0,61.0021,-3.065,24,3
165,2014-05-10 08:05:11,1399709111,61.00121,-3.03221,3,1,2014-05-10 08:05:32,1399709132,9.792,28,11.1,0,0,61.0182,-3.0564,3,3
166,2014-05-10 09:05:11,1399712711,61.03257,-3.03613,2,2,2014-05-10 09:05:06,1399712706,9.835,32,11.1,0,0,61.0338,-3.0505,3,5
167,2014-05-10 10:05:20,1399716320,61.03257,-3.03613,4,2,2014-05-10 10:05:20,1399716320,9.835,32,11.1,0,0,61.0488,-3.0475,3,4
168,2014-05-10 11:05:11,1399719911,61.07963,-3.11406,2,1,2014-05-10 11:05:23,1399719923,9.835,32,11,0,0,61.0634,-3.0487,3,4
169,2014-05-10 12:06:30,1399723590,61.04995,-3.03613,2,4,2014-05-10 12:05:13,1399723513,9.792,32,11,0,0,61.0792,-3.0499,82,5
170,2014-05-10 13:05:38,1399727138,61.13003,-3.04399,6,1,2014-05-10 13:05:15,1399727115,9.792,29,11.1,0,0,61.0937,-3.0537,31,3
171,2014-05-10 14:05:08,1399730708,61.10928,-3.19218,6,2,2014-05-10 14:05:33,1399730733,9.749,29,11,0,0,61.1094,-3.0551,3,2
172,2014-05-10 15:05:12,1399734312,61.11101,-3.11809,2,2,2014-05-10 15:05:28,1399734328,9.792,29,11,0,0,61.1264,-3.053,3,5
173,2014-05-10 16:05:11,1399737911,61.11101,-3.11809,3,2,2014-05-10 16:05:22,1399737922,9.792,29,11.1,0,0,61.1434,-3.0475,3,5
174,2014-05-10 17:05:08,1399741508,61.13003,-3.04399,4,1,2014-05-10 17:05:44,1399741544,9.749,33,11.1,0,0,61.1603,-3.0381,3,4
175,2014-05-10 18:05:10,1399745110,61.16142,-3.04794,8,2,2014-05-10 18:05:34,1399745134,9.749,33,11,0,0,61.1747,-3.0293,3,5
176,2014-05-10 19:05:11,1399748711,61.19449,-2.97759,2,2,2014-05-10 19:05:10,1399748710,9.706,33,11,0,0,61.1882,-3.0218,3,5
177,2014-05-10 20:05:10,1399752310,61.24154,-3.05586,6,2,2014-05-10 20:05:13,1399752313,9.749,33,11,0,0,61.1997,-3.0177,3,2
178,2014-05-10 21:05:18,1399755918,61.21178,-2.97759,3,3,2014-05-10 21:05:44,1399755944,9.749,33,11.1,0,0,61.2099,-3.0185,3,2
179,2014-05-10 22:05:27,1399759527,61.21178,-2.97759,1,1,2014-05-10 22:05:10,1399759510,9.749,33,11,0,0,61.2179,-3.0237,19,5
180,2014-05-10 23:07:19,1399763239,61.21013,-3.05189,3,2,2014-05-10 23:05:57,1399763157,9.706,33,11,0,0,61.225,-3.0341,126,2
181,2014-05-11 00:05:27,1399766727,61.23984,-3.13024,2,1,2014-05-11 00:05:44,1399766744,9.706,33,11,0,0,61.2315,-3.0465,20,5
182,2014-05-11 01:05:11,1399770311,61.43628,0.22498,192,2,2014-05-11 01:05:39,1399770339,9.706,30,11,0,0,61.2376,-3.0591,3,4
183,2014-05-11 02:06:15,1399773975,61.24154,-3.05586,5,2,2014-05-11 02:05:14,1399773914,9.706,30,11,0,0,61.2438,-3.0713,65,5
184,2014-05-11 03:05:20,1399777520,61.20843,-3.12618,3,2,2014-05-11 03:05:15,1399777515,9.706,30,11,0,0,61.2497,-3.0808,3,5
185,2014-05-11 04:05:15,1399781115,61.24154,-3.05586,3,1,2014-05-11 04:05:15,1399781115,9.663,30,11,0,0,61.2562,-3.0855,3,5
186,2014-05-11 05:05:16,1399784716,61.29023,-3.05983,5,2,2014-05-11 05:05:36,1399784736,9.663,34,11,0,0,61.2619,-3.0867,3,1
187,2014-05-11 06:05:46,1399788346,61.28853,-3.13432,14,5,2014-05-11 06:05:45,1399788345,9.663,34,11,0,0,61.2672,-3.0862,40,3
188,2014-05-11 07:05:10,1399791910,61.24154,-3.05586,2,2,2014-05-11 07:05:45,1399791945,9.663,34,11,0,0,61.2717,-3.0854,3,4
189,2014-05-11 08:05:09,1399795509,61.44801,-6.31533,187,1,2014-05-11 08:05:23,1399795523,9.706,34,11,0,0,61.2746,-3.0879,3,5
190,2014-05-11 09:05:15,1399799115,61.28853,-3.13432,1,2,2014-05-11 09:05:07,1399799107,9.706,35,11,0,0,61.2764,-3.0924,3,5
191,2014-05-11 10:05:19,1399802719,61.4201,-6.2326,185,2,2014-05-11 10:05:43,1399802743,9.706,35,11,0,0,61.2762,-3.1025,3,3
192,2014-05-11 11:06:38,1399806398,61.28853,-3.13432,3,2,2014-05-11 11:05:34,1399806334,9.706,35,11,0,0,61.2749,-3.1181,83,1
193,2014-05-11 12:05:11,1399809911,61.23984,-3.13024,71,2,2014-05-11 12:05:02,1399809902,9.792,35,11,0,0,61.2732,-3.1397,3,5
194,2014-05-11 13:05:22,1399813522,61.28853,-3.13432,4,2,2014-05-11 13:05:49,1399813549,9.792,28,11,0,0,61.2716,-3.1648,3,5
195,2014-05-11 14:05:11,1399817111,61.25499,-2.38594,81,1,2014-05-11 14:05:53,1399817153,9.835,28,11,0,0,61.2716,-3.1922,3,5
196,2014-05-11 15:05:37,1399820737,61.23811,-3.20462,5,3,2014-05-11 15:05:09,1399820709,9.835,28,11,0,0,61.2723,-3.2193,21,2
197,2014-05-11 16:05:12,1399824312,61.28678,-3.20879,3,2,2014-05-11 16:05:09,1399824309,9.835,28,11,0,0,61.2752,-3.2442,3,1
198,2014-05-11 17:05:18,1399827918,61.28678,-3.20879,2,1,2014-05-11 17:05:01,1399827901,9.792,32,11,0,0,61.2802,-3.2658,3,5
199,2014-05-11 18:05:23,1399831523,61.14449,0.81739,230,2,2014-05-11 18:05:40,1399831540,9.792,32,11,0,0,61.2866,-3.2832,18,5
200,2014-05-11 19:05:38,1399835138,61.31643,-3.28753,8,2,2014-05-11 19:05:03,1399835103,9.792,32,11,0,0,61.2924,-3.298,22,5
201,2014-05-11 20:05:08,1399838708,61.285,-3.28325,2,2,2014-05-11 20:05:38,1399838738,9.749,32,11,0,0,61.2969,-3.3139,3,5
202,2014-05-11 21:05:47,1399842347,61.31996,-3.1384,69,2,2014-05-11 21:05:32,1399842332,9.749,35,11,0,0,61.3011,-3.3329,39,2
203,2014-05-11 22:05:28,1399845928,61.28318,-3.3577,4,2,2014-05-11 22:05:42,1399845942,9.749,35,11,0,0,61.3045,-3.3574,22,5
204,2014-05-11 23:05:27,1399849527,61.33245,-2.54149,94,2,2014-05-11 23:05:24,1399849524,9.706,35,11,0,0,61.3056,-3.387,19,4
205,2014-05-12 00:05:12,1399853112,61.28132,-3.43214,3,2,2014-05-12 00:05:08,1399853108,9.663,35,11,0,0,61.3065,-3.4222,3,5
206,2014-05-12 01:05:30,1399856730,61.27941,-3.50657,3,3,2014-05-12 01:05:00,1399856700,9.663,32,11,0,0,0,0,22,5
207,2014-05-12 02:05:19,1399860319,61.31274,-3.43661,2,1,2014-05-12 02:05:44,1399860344,9.706,32,11,0,0,61.312,-3.5007,3,5
208,2014-05-12 03:05:11,1399863911,61.56466,0.45173,224,3,2014-05-12 03:05:08,1399863908,9.663,32,11,0,0,61.3176,-3.5377,3,2
209,2014-05-12 04:05:29,1399867529,61.35753,-3.59032,12,2,2014-05-12 04:05:44,1399867544,9.663,32,11,0,0,61.3249,-3.5678,22,5
210,2014-05-12 05:05:18,1399871118,61.34227,-3.51571,2,5,2014-05-12 05:05:10,1399871110,9.663,37,11,0,0,61.3348,-3.5936,3,5
211,2014-05-12 06:05:11,1399874711,61.34227,-3.51571,2,1,2014-05-12 06:05:32,1399874732,9.663,37,11,0,0,61.3443,-3.6128,3,5
212,2014-05-12 07:06:18,1399878378,61.34032,-3.59032,3,3,2014-05-12 07:05:32,1399878332,9.663,37,11,0,0,61.3538,-3.6295,70,3
213,2014-05-12 08:05:20,1399881920,61.35554,-3.66492,2,6,2014-05-12 08:05:46,1399881946,9.663,37,11,0,0,61.3632,-3.6468,3,4
214,2014-05-12 09:05:34,1399885534,61.38698,-3.6697,4,2,2014-05-12 09:05:39,1399885539,9.706,32,11,0,0,61.372,-3.6646,27,5
215,2014-05-12 10:06:29,1399889189,61.38494,-3.74438,3,2,2014-05-12 10:05:34,1399889134,9.706,32,11,0,0,61.3805,-3.6847,82,1
216,2014-05-12 11:05:12,1399892712,61.38494,-3.74438,3,2,2014-05-12 11:05:08,1399892708,9.706,32,11,0,0,61.3885,-3.7071,3,4
217,2014-05-12 12:05:11,1399896311,61.39093,-3.5203,14,2,2014-05-12 12:05:36,1399896336,9.749,32,11,0,0,61.3952,-3.7277,3,5
218,2014-05-12 13:05:49,1399899949,61.41431,-3.82404,2,2,2014-05-12 13:05:47,1399899947,9.749,30,11,0,0,61.4015,-3.7473,41,5
219,2014-05-12 14:05:09,1399903509,61.38494,-3.74438,3,2,2014-05-12 14:05:45,1399903545,9.749,30,11,0,0,61.4078,-3.7634,3,5